Weather History for Kerkyra, Greece

Change the Weather History Date:

Tuesday, August 20, 2013

  Actual Average Record
Temperature  
Mean Temperature 85 °F -  
Max Temperature 95 °F 84 °F 100 °F (2003)
Min Temperature 75 °F 63 °F 64 °F (2005)
Cooling Degree Days 20    
Growing Degree Days 35 (Base 50)    
Moisture  
Dew Point 75 °F    
Average Humidity 73    
Maximum Humidity 89    
Minimum Humidity 48    
Precipitation  
Precipitation 0.00 in 0.07 in - ()
Sea Level Pressure  
Sea Level Pressure 29.86 in    
Wind  
Wind Speed 2 mph ()    
Max Wind Speed 10 mph    
Max Gust Speed -    
Visibility 6.2 miles    
Events      
Averages and records for this station are not official NWS values.
T = Trace of Precipitation, MM = Missing Value Source: Averaged Metar Reports

Daily Weather History Graph

Daily Weather History Graph

Search for Another Location

Airport:

Trip Planner

Search our weather history database for the weather conditions in past years. The results will help you decide how hot, cold, wet, or windy it might be!

Date:

Astronomy

Aug. 20, 2013 Rise Set
Actual Time 6:57 AM EEST 8:29 PM EEST
Civil Twilight 6:28 AM EEST 8:57 PM EEST
Nautical Twilight 5:54 AM EEST 9:31 PM EEST
Astronomical Twilight 5:18 AM EEST 10:08 PM EEST
Moon 7:49 PM EEST (8/20) 6:05 AM EEST (8/20)
Length of Visible Light 14h 28m
Length of Day
13h 32m
Waxing Gibbous, 99% of the Moon is Illuminated
Aug 20
Waxing Gibbous
Aug 21
Full
Aug 28
Last Quarter
Sep 5
New
Sep 12
First Quarter

Hourly Weather History & Observations

Time (EEST) Temp. Heat Index Dew Point Humidity Pressure Visibility Wind Dir Wind Speed Gust Speed Precip Events Conditions
12:20 AM 80.6 °F 85.4 °F 73.4 °F 79% 29.89 in 6.2 mi Calm Calm - N/A   Scattered Clouds
12:50 AM 78.8 °F - 69.8 °F 74% 29.89 in 6.2 mi Calm Calm - N/A   Scattered Clouds
1:20 AM 78.8 °F - 69.8 °F 74% 29.89 in 6.2 mi Calm Calm - N/A   Scattered Clouds
1:50 AM 77.0 °F - 71.6 °F 83% 29.89 in 6.2 mi Calm Calm - N/A   Scattered Clouds
2:20 AM 77.0 °F - 71.6 °F 83% 29.89 in 6.2 mi Calm Calm - N/A   Scattered Clouds
2:50 AM 77.0 °F - 71.6 °F 83% 29.89 in 6.2 mi Calm Calm - N/A   Scattered Clouds
3:00 AM 77 °F - 72 °F 80% 29.89 in 6 mi Calm Calm - -   Scattered Clouds
3:20 AM 77.0 °F - 71.6 °F 83% 29.89 in 6.2 mi Calm Calm - N/A   Scattered Clouds
3:50 AM 77.0 °F - 71.6 °F 83% 29.89 in 6.2 mi Calm Calm - N/A   Scattered Clouds
4:20 AM 77.0 °F - 71.6 °F 83% 29.89 in 6.2 mi Calm Calm - N/A   Scattered Clouds
4:50 AM 75.2 °F - 71.6 °F 89% 29.86 in 6.2 mi Calm Calm - N/A   Scattered Clouds
5:20 AM 75.2 °F - 71.6 °F 89% 29.86 in 6.2 mi Calm Calm - N/A   Scattered Clouds
5:50 AM 75.2 °F - 71.6 °F 89% 29.86 in 6.2 mi Calm Calm - N/A   Scattered Clouds
6:20 AM 75.2 °F - 71.6 °F 89% 29.86 in 6.2 mi Calm Calm - N/A   Scattered Clouds
6:50 AM 75.2 °F - 71.6 °F 89% 29.86 in 6.2 mi Calm Calm - N/A   Scattered Clouds
7:20 AM 75.2 °F - 71.6 °F 89% 29.86 in 6.2 mi Calm Calm - N/A   Scattered Clouds
7:50 AM 77.0 °F - 73.4 °F 89% 29.86 in 5.0 mi Calm Calm - N/A   Scattered Clouds
8:20 AM 77.0 °F - 73.4 °F 89% 29.86 in 5.0 mi Calm Calm - N/A   Scattered Clouds
8:50 AM 80.6 °F 86.2 °F 75.2 °F 84% 29.86 in 5.0 mi Calm Calm - N/A   Scattered Clouds
9:00 AM 80 °F - 75 °F 79% 29.88 in 5 mi Calm Calm - -   Mist
9:20 AM 84.2 °F 92.3 °F 75.2 °F 74% 29.86 in 6.2 mi Calm Calm - N/A   Scattered Clouds
9:50 AM 86.0 °F 99.3 °F 78.8 °F 79% 29.89 in 6.2 mi SE 4.6 mph - N/A   Scattered Clouds
10:20 AM 87.8 °F 102.5 °F 78.8 °F 75% 29.89 in 6.2 mi ENE 4.6 mph - N/A   Scattered Clouds
10:50 AM 87.8 °F 99.7 °F 77.0 °F 70% 29.89 in 6.2 mi East 4.6 mph - N/A   Mostly Cloudy
11:20 AM 87.8 °F 99.7 °F 77.0 °F 70% 29.89 in 6.2 mi ESE 5.8 mph - N/A   Mostly Cloudy
11:50 AM 89.6 °F 102.2 °F 77.0 °F 66% 29.89 in 6.2 mi SSE 6.9 mph - N/A   Mostly Cloudy
12:20 PM 89.6 °F 102.2 °F 77.0 °F 66% 29.89 in 6.2 mi SE 9.2 mph - N/A   Mostly Cloudy
12:50 PM 91.4 °F 105.1 °F 77.0 °F 63% 29.86 in 6.2 mi SSE 8.1 mph - N/A   Mostly Cloudy
1:20 PM 91.4 °F 105.1 °F 77.0 °F 63% 29.86 in 6.2 mi SE 10.4 mph - N/A   Mostly Cloudy
1:50 PM 93.2 °F 113.6 °F 80.6 °F 67% 29.86 in 6.2 mi SSE 10.4 mph - N/A   Scattered Clouds
2:20 PM 95.0 °F 115.8 °F 80.6 °F 63% 29.86 in 6.2 mi SSE 8.1 mph - N/A   Scattered Clouds
2:50 PM 93.2 °F 107.2 °F 77.0 °F 59% 29.86 in 6.2 mi SE 8.1 mph - N/A   Scattered Clouds
3:00 PM 94 °F - 76 °F 48% 29.86 in 9 mi SE 8.1 mph - -   Scattered Clouds
3:20 PM 93.2 °F 107.2 °F 77.0 °F 59% 29.86 in 6.2 mi SSE 9.2 mph - N/A   Scattered Clouds
3:50 PM 93.2 °F 105.0 °F 75.2 °F 56% 29.86 in 6.2 mi SSE 8.1 mph - N/A   Partly Cloudy
4:20 PM 93.2 °F 105.0 °F 75.2 °F 56% 29.83 in 6.2 mi SSE 8.1 mph - N/A   Partly Cloudy
4:50 PM 95.0 °F 109.7 °F 77.0 °F 56% 29.83 in 6.2 mi South 5.8 mph - N/A   Partly Cloudy
5:20 PM 95.0 °F 109.7 °F 77.0 °F 56% 29.83 in 6.2 mi West 3.5 mph - N/A   Partly Cloudy
5:50 PM 95.0 °F 112.2 °F 78.8 °F 59% 29.83 in 6.2 mi West 3.5 mph - N/A   Partly Cloudy
6:20 PM 95.0 °F 112.2 °F 78.8 °F 59% 29.83 in 6.2 mi NE 6.9 mph - N/A   Partly Cloudy
6:50 PM 91.4 °F 107.2 °F 78.8 °F 66% 29.83 in 6.2 mi NE 3.5 mph - N/A   Partly Cloudy
7:20 PM 89.6 °F 104.7 °F 78.8 °F 70% 29.83 in 6.2 mi North 5.8 mph - N/A   Partly Cloudy
7:50 PM 89.6 °F 104.7 °F 78.8 °F 70% 29.83 in - North 4.6 mph - N/A   Clear
8:20 PM 87.8 °F 99.7 °F 77.0 °F 70% 29.83 in - North 3.5 mph - N/A   Clear
8:50 PM 86.0 °F 95.1 °F 75.2 °F 70% 29.83 in 6.2 mi North 3.5 mph - N/A   Partly Cloudy
9:00 PM 86 °F - 76 °F 65% 29.84 in 6 mi North 3.5 mph - -   Scattered Clouds
9:20 PM 84.2 °F 92.3 °F 75.2 °F 74% 29.83 in 6.2 mi Calm Calm - N/A   Partly Cloudy
9:50 PM 84.2 °F 92.3 °F 75.2 °F 74% 29.83 in 6.2 mi Calm Calm - N/A   Scattered Clouds
10:20 PM 84.2 °F 92.3 °F 75.2 °F 74% 29.83 in 6.2 mi Calm Calm - N/A   Scattered Clouds
10:50 PM 82.4 °F 89.5 °F 75.2 °F 79% 29.86 in 6.2 mi Calm Calm - N/A   Mostly Cloudy
11:20 PM 82.4 °F 89.5 °F 75.2 °F 79% 29.86 in 6.2 mi Calm Calm - N/A   Mostly Cloudy
11:50 PM 80.6 °F 84.6 °F 71.6 °F 74% 29.86 in 6.2 mi Calm Calm - N/A   Mostly Cloudy